Regional Weather Roundup
Issued by NWS Wakefield, VA

Home | Current Version | Previous Version | Graphics & Text | Print | Product List | Glossary On
Versions: 1 2 3 4 5 6 7 8 9 10 11 12 13 14 15 16 17 18 19 20 21 22 23 24 25 26 27 28 29 30 31 32 33 34 35 36 37 38 39 40 41 42 43 44 45 46 47 48 49 50
000
ASUS41 KAKQ 221710
RWRAKQ

REGIONAL WEATHER ROUNDUP
NATIONAL WEATHER SERVICE WAKEFIELD VA
1200 PM EST SAT NOV 22 2014

Note: "fair" indicates few or no clouds below 12,000 feet with no
significant weather and/or obstructions to visibility. * = Denotes
station may not report precipitation (e.g., rain,snow,etc.),
thunder or fog.

VAZ042-051-052>054-056-221800-
NORTHERN VIRGINIA

CITY           SKY/WX    TMP DP  RH WIND       PRES   REMARKS
WASH NATIONAL  MOSUNNY   46  15  28 SW15G26   30.45F
DULLES         MOSUNNY   44  14  29 SW18G24   30.42F
FORT BELVOIR   SUNNY     43  16  32 S12       30.44F
QUANTICO       SUNNY     46  17  31 SW15      30.45F
FREDERICKSBRG* SUNNY     48  14  25 SW17G23   30.44F
STAFFORD*      SUNNY     46   8  21 SW10G22   30.46F
WARRENTON      SUNNY     48  23  36 SW14      30.41F
CULPEPER*      SUNNY     46  12  25 MISG      30.43F
MANASSAS*      NOT AVBL
LEESBURG*      SUNNY     43  19  39 SW7       30.41F
WINCHESTER     SUNNY     43   3  19 S7        30.36F
FRONT ROYAL*   SUNNY     46  16  29 S3        30.35F
LURAY*         SUNNY     52  19  28 SW12      30.35F
$$

VAZ048-049-060>072-079>083-221800-
CENTRAL AND SOUTH CENTRAL VIRGINIA

CITY           SKY/WX    TMP DP  RH WIND       PRES   REMARKS
RICHMOND       PTSUNNY   47  12  24 SW16      30.48F
CHESTERFIELD*  MOSUNNY   46  14  27 S12G17    30.49F
PETERSBURG*    MOSUNNY   46  13  26 S6        30.50F
HANOVER        SUNNY     46  14  27 SW9       30.49F
TAPPAHANNOCK*  SUNNY     46   8  21 S8        30.48F
QUINTON*       FAIR      43  16  32 S7        30.50F
CHARLOTTSVILLE SUNNY     46  13  26 S12       30.41F
GORDONSVILLE*  SUNNY     46  13  26 SW17G28   30.42F
ORANGE*        SUNNY     46  14  27 S14G24    30.43F
LOUISA*        SUNNY     45  16  31 S10       30.42F
BUMPASS*       FAIR      44  13  28 S12G20    30.44F
FARMVILLE*     SUNNY     48  14  24 S13G18    30.44F
CREWE*         MOSUNNY   44  12  27 SW7       30.48F
FORT PICKETT*  MOSUNNY   45  14  29 SW9       30.48F
LUNENBURG*     MOSUNNY   46  16  30 S8        30.47F
CHASE CITY*    FAIR      47  19  33 S7        30.48F
CLARKSVILLE*   FAIR      45  18  33 S7        30.49F
SOUTH HILL*    MOSUNNY   44  14  30 S8        30.56F
LAWRENCEVILLE* MOSUNNY   45  16  31 S9        30.50F
$$

VAZ088>098-221800-
SOUTHEAST VIRGINIA

CITY           SKY/WX    TMP DP  RH WIND       PRES   REMARKS
NORFOLK        SUNNY     49  17  28 SW13      30.51F
VIRGINIA BEACH PTSUNNY   50  22  33 S8        30.51F
NORFOLK NAVAL  PTSUNNY   50  19  29 S6        30.52F
WEST POINT*    SUNNY     48  11  22 SW9       30.52F
SALUDA*        FAIR      44  14  29 SW6G18    30.49F
NEWPORT NEWS   SUNNY     49  18  29 SW12      30.51F
LANGLEY AFB    SUNNY     46  18  31 SW13      30.52F
FORT EUSTIS    SUNNY     46  17  31 SW8       30.50F
WILLIAMSBURG*  SUNNY     48  18  29 W8        30.52F
HR EXEC AP*    SUNNY     48  19  32 S9        30.54F
FRANKLIN*      MOSUNNY   46  16  29 S9        30.52F
WAKEFIELD      SUNNY     46  13  26 SW9       30.52F
$$

VAZ020-022-025-037-045-221800-
WEST CENTRAL AND SOUTHWEST VIRGINIA

CITY           SKY/WX    TMP DP  RH WIND       PRES   REMARKS
STAUNTON*      SUNNY     50  12  21 SW10G16   30.37F
WAYNESBORO*    SUNNY     46  12  25 SW6       30.37F
HOT SPRINGS VA SUNNY     46  15  29 W13G18    30.30F
LYNCHBURG      SUNNY     43  14  31 SW13G23   30.45F
DANVILLE       MOSUNNY   47  14  26 SW8       30.48F
SOUTH BOSTON*  MOSUNNY   46  14  27 S9        30.49F
MARTINSVILLE   MOSUNNY   47  14  26 SW10      30.48F
ROANOKE        PTSUNNY   41  12  30 VRB6      30.45F
BLACKSBURG     SUNNY     43  21  42 NW5       30.41F
DUBLIN*        SUNNY     46  16  30 SW3       30.40F
MARION*        SUNNY     48  17  29 CALM      30.40F
HILLSVILLE*    SUNNY     45  16  31 S3        30.38F
RICHLANDS*     MOSUNNY   50  18  27 NW5       30.35F
WISE*          SUNNY     54  18  24 SW6       30.36F
ABINGDON*      MOSUNNY   53  18  24 CALM      30.37F
$$

MDZ021>025-VAZ099-100-221800-
SOUTHERN MARYLAND AND THE DELMARVA PENINSULA

CITY           SKY/WX    TMP DP  RH WIND       PRES   REMARKS
PATUXENT RIVER MOSUNNY   44  14  29 SW10      30.47F
BAY BRIDGE APT   N/A     43  18  36 S7G18     30.44F
LEONARDTOWN    SUNNY     43  14  31 SW13G18   30.47F
DOVER          SUNNY     43  19  37 SW17      30.43F
GEORGETOWN     SUNNY     44  19  36 SW17G25   30.48F
EASTON         NOT AVBL
CAMBRIDGE      SUNNY     45  18  33 S13       30.46F
SALISBURY      SUNNY     48  22  35 SW13      30.48F
OCEAN CITY     SUNNY     44  19  36 SW10      30.49F
WALLOPS ISLAND SUNNY     46  17  31 SW12      30.50F
ACCOMACK*      SUNNY     46  19  34 W9        30.50F
$$

NCZ012>017-030>032-221800-
NORTH CENTRAL AND EASTERN NORTH CAROLINA

CITY           SKY/WX    TMP DP  RH WIND       PRES   REMARKS
ROANOKE RAPIDS MOSUNNY   46  16  29 S8        30.52F
RALEIGH        MOSUNNY   49  13  23 SW8       30.51F
ELIZABETH CITY SUNNY     52  26  36 S7        30.53F
AHOSKIE*       MOSUNNY   47  15  27 S6        30.53F
EDENTON*       SUNNY     49  25  38 SW6       30.53F
CURRITUCK*     SUNNY     50  21  32 S6        30.53F
KILL DEVIL HLS SUNNY     51  32  48 SW3       30.51F
MANTEO         SUNNY     48  32  53 SW3       30.53F
CAPE HATTERAS  SUNNY     50  40  68 N8        30.51F
TARBORO*       SUNNY     50  11  21 E5        30.53F
GOLDSBORO      SUNNY     52  16  24 CALM      30.51F
WASHINGTON     SUNNY     49  25  39 SE3       30.53F
GREENVILLE     SUNNY     50  19  29 E3        30.52F
NEW BERN       SUNNY     53  27  36 CALM      30.53F
WILMINGTON     SUNNY     54  40  59 VRB6      30.50F
$$

VAZ048-221800-
ELSEWHERE

CITY           SKY/WX    TMP DP  RH WIND       PRES   REMARKS
HARRISBURG PA  PTSUNNY   41  15  35 S8        30.36F
BALTIMORE      MOSUNNY   43  14  31 SW10      30.42F
ANNAPOLIS      SUNNY     44  17  33 S12       30.44F
ANDREWS AFB    SUNNY     44  15  30 S14       30.42F
PHILADELPHIA   MOSUNNY   41  16  36 SW15      30.43F
WILDWOOD NJ*   SUNNY     43  19  39 SW15      30.45F
HENDERSON NC   SUNNY     47   9  21 SW8       30.50F
GREENSBORO     PTSUNNY   46  13  26 S8        30.48F
ROCKY MOUNT    SUNNY     50  13  22 VRB6      30.53F
$$

VAZ100-221800-
MARINE

STATION/POSITION TIME  TEMP    WIND        PRES    WAVE   SWELL
                       AIR SEA DIR/SP/G            HT/PER HT/PER
                 (UTC) (F)     (DEG/KT/KT) (MB)    (FT/S) (FT/S)
CAPE MAY NJ      1700   40 46  240/ 12/ 14 1031.7F
LEWES DE         1700   42 44  250/  9/ 13 1031.9F
15NM E FENWICK I 1700   42 54              1032.3F   1/ 3
OCEAN-CITY-INLET 1700   42 49  230/ 15/ 18 1032.3F
WACHAPREAGUE VA  1700   44 40  210/ 12/ 15 1033.0F
THOMAS POINT MD  1700   41 46  190/ 15/ 17 1031.7F
GOOSES REEF MD   1700   41     220/ 14/ 17 1032.2F
COVE POINT MD    1700   42     230/ 14/ 17 1031.5F
SOLOMONS ISLAND  1700      48                N/A
BISHOPS HEAD MD  1700   41 36  220/ 14/ 15 1032.0F
PINEY POINT MD   1700          220/ 14/ 17   N/A
POTOMAC MD       1700   43     230/ 12/ 16 1031.9S
CAMBRIDGE MD     1700   42 42  200/  9/ 14 1031.9F
LEWISETTA VA     1700   42 42  220/ 11/ 14 1031.6F
RAPPAHANNOCK LGT 1700          200/ 14/ 17 1033.4F
STINGRAY PT      1700   43     210/ 12/ 16 1033.4F
YORK RVR RNG VA  1700   44     220/ 10/ 12 1032.7F
YORKTOWN VA      1700   44 50  210/  9/ 11 1033.0F
JAMESTOWN VA     1700   42     250/ 10/ 12   N/A
DOMINION TERM VA 1700   44     240/  8/ 11 1033.5F
KIPTOPEKE VA     1700      51  220/  8/ 11   N/A
CHES BAY BRIDGE  1700   46 51  190/  8/ 11 1032.8F
CAPE HENRY VA    1700   46     170/  8/ 11 1031.9F
CHESAPEAKE LGHT  1600   44     180/  8/ 10 1034.9F
WILLOUBY STN VA  1700   45     220/  8/  9 1031.9F
S CRANEY ISL VA  1700          180/  4/  5 1033.2F
CAPE HENRY BUOY  1700      54                N/A     1/ 6
1ST LANDING BUOY 1700   46     210/ 10/ 12 1033.1F
CAPE CHARLES BUO 1700      54                N/A     1/ 6   2/ 6
64NM E OF VA BCH 1700   47 60  190/  4/  6 1033.4F   3/ 6   2/ 6
DUCK PIER NC     1700   46 54  280/  2/  5 1032.9F
44100 DUCK FRF   1700      58                N/A     2/ 7
44056 DUCK FRF   1700      56                N/A     2/ 6
OREGON INLET NC  1700   49 49   70/  4/  6 1033.5F
HATTERAS NC      1700   47 50   10/ 10/ 10 1033.5F
DIAMOND SHLS NC  1700   55      20/  8/ 10 1033.2F   4/ 8   3/ 8


USA.gov is the U.S. government's official web portal to all federal, state and local government web resources and services.